Monterey, CA

9:50 AM PDT on September 26, 2016 (GMT -0700)
Monterey Peninsula

Weather History for KMRY - October, 2013

Change the Weather History Date:

Friday, October 18, 2013

  Actual Average Record
Temperature  
Mean Temperature 54 °F 58 °F  
Max Temperature 64 °F 67 °F 84 °F (2012)
Min Temperature 43 °F 50 °F 43 °F (2013)
Degree Days  
Heating Degree Days 11    
Month to date heating degree days 97  
Since 1 July heating degree days 346  
Growing Degree Days 4 (Base 50)    
Moisture  
Dew Point 47 °F    
Average Humidity 76    
Maximum Humidity 100    
Minimum Humidity 52    
Precipitation  
Precipitation 0.00 in - 0.01 in (2011)
Month to date precipitation 0.00  
Year to date precipitation 3.28  
Since 1 July precipitation 0.13  
Sea Level Pressure  
Sea Level Pressure 30.04 in    
Wind  
Wind Speed 2 mph (NE)    
Max Wind Speed 8 mph    
Max Gust Speed 12 mph    
Visibility 6 miles    
Events Fog    
T = Trace of Precipitation, MM = Missing Value Source: NWS Daily Summary

Daily Weather History Graph

Daily Weather History Graph

Search for Another Location

Airport or City:

Trip Planner

Search our weather history database for the weather conditions in past years. The results will help you decide how hot, cold, wet, or windy it might be!

Date:

Astronomy

Oct. 18, 2013 Rise Set
Actual Time 7:17 AM PDT 6:26 PM PDT
Civil Twilight 6:51 AM PDT 6:52 PM PDT
Nautical Twilight 6:21 AM PDT 7:22 PM PDT
Astronomical Twilight 5:51 AM PDT 7:52 PM PDT
Moon 6:20 PM PDT (10/18) 6:58 AM PDT (10/18)
Length of Visible Light 12h 01m
Length of Day
11h 08m
Full, 100% of the Moon is Illuminated
Oct 18
Full
Oct 18
Full
Oct 26
Last Quarter
Nov 3
New
Nov 9
First Quarter

Hourly Weather History & Observations

Time (PDT) Temp. Windchill Dew Point Humidity Pressure Visibility Wind Dir Wind Speed Gust Speed Precip Events Conditions
12:54 AM 55.0 °F - 46.0 °F 72% 30.03 in 10.0 mi Calm Calm - N/A   Smoke
1:54 AM 54.0 °F - 46.0 °F 75% 30.04 in 10.0 mi Calm Calm - N/A   Smoke
2:54 AM 51.1 °F - 41.0 °F 68% 30.04 in 10.0 mi Calm Calm - N/A   Smoke
3:54 AM 52.0 °F - 45.0 °F 77% 30.04 in 10.0 mi Calm Calm - N/A   Smoke
4:41 AM 48.2 °F - 35.6 °F 62% 30.01 in 10.0 mi Calm Calm - N/A   Smoke
4:54 AM 48.9 °F - 36.0 °F 61% 30.04 in 10.0 mi Calm Calm - N/A   Smoke
5:31 AM 50.0 °F - 46.4 °F 87% 30.01 in 1.5 mi Calm Calm - N/A   Overcast
5:41 AM 50.0 °F - 48.2 °F 94% 30.01 in 0.5 mi Calm Calm - N/A Fog Fog
5:50 AM 51.8 °F - 48.2 °F 88% 30.01 in 0.2 mi Calm Calm - N/A Fog Fog
5:54 AM 51.1 °F - 50.0 °F 96% 30.05 in 0.2 mi Calm Calm - N/A Fog Fog
6:18 AM 50.0 °F - 48.2 °F 94% 30.01 in 0.2 mi Calm Calm - N/A Fog Fog
6:28 AM 48.2 °F - 48.2 °F 100% 30.02 in 0.8 mi East 3.5 mph - N/A   Mist
6:30 AM 48.2 °F - 46.4 °F 93% 30.02 in 1.0 mi East 3.5 mph - N/A   Mist
6:36 AM 50.0 °F - 48.2 °F 94% 30.02 in 0.2 mi SE 4.6 mph - N/A Fog Fog
6:54 AM 50.0 °F - 48.9 °F 96% 30.05 in 0.2 mi Calm Calm - N/A Fog Fog
7:15 AM 46.4 °F 43.5 °F 44.6 °F 93% 30.02 in 1.0 mi East 5.8 mph - N/A   Mist
7:24 AM 46.4 °F 43.5 °F 44.6 °F 93% 30.02 in 10.0 mi East 5.8 mph - N/A   Smoke
7:28 AM 46.4 °F 44.3 °F 44.6 °F 93% 30.02 in 10.0 mi ESE 4.6 mph - N/A   Smoke
7:54 AM 44.1 °F 42.5 °F 41.0 °F 89% 30.06 in 10.0 mi ENE 3.5 mph - N/A   Smoke
8:54 AM 55.0 °F - 44.1 °F 67% 30.07 in 10.0 mi Calm Calm - N/A   Smoke
9:54 AM 57.9 °F - 48.0 °F 70% 30.09 in 10.0 mi Calm Calm - N/A   Smoke
10:54 AM 62.1 °F - 51.1 °F 67% 30.08 in 10.0 mi NW 4.6 mph - N/A   Smoke
11:54 AM 62.1 °F - 44.1 °F 52% 30.08 in 10.0 mi WNW 4.6 mph - N/A   Smoke
12:54 PM 63.0 °F - 48.9 °F 60% 30.07 in 10.0 mi WNW 4.6 mph - N/A   Smoke
1:54 PM 60.1 °F - 50.0 °F 69% 30.06 in 10.0 mi NW 6.9 mph - N/A   Smoke
2:54 PM 61.0 °F - 51.1 °F 70% 30.05 in 10.0 mi NW 6.9 mph - N/A   Clear
3:54 PM 61.0 °F - 51.1 °F 70% 30.05 in 9.0 mi NNW 6.9 mph - N/A   Clear
4:54 PM 61.0 °F - 51.1 °F 70% 30.05 in 9.0 mi North 4.6 mph - N/A   Clear
5:54 PM 59.0 °F - 50.0 °F 72% 30.06 in 9.0 mi Calm Calm - N/A   Clear
6:54 PM 55.9 °F - 48.9 °F 77% 30.06 in 10.0 mi NNE 3.5 mph - N/A   Clear
7:54 PM 53.1 °F - 50.0 °F 89% 30.08 in 7.0 mi Calm Calm - N/A   Clear
8:06 PM 53.6 °F - 50.0 °F 88% 30.04 in 6.0 mi Calm Calm - N/A   Scattered Clouds
8:15 PM 53.6 °F - 50.0 °F 88% 30.04 in 6.0 mi Calm Calm - N/A   Mostly Cloudy
8:54 PM 51.1 °F - 50.0 °F 96% 30.07 in 3.0 mi East 3.5 mph - N/A   Overcast
9:01 PM 51.8 °F - 48.2 °F 88% 30.04 in 2.0 mi Calm Calm - N/A   Overcast
9:16 PM 51.8 °F - 48.2 °F 88% 30.03 in 4.0 mi East 3.5 mph - N/A   Overcast
9:33 PM 50.0 °F - 48.2 °F 94% 30.03 in 6.0 mi Calm Calm - N/A   Scattered Clouds
9:54 PM 50.0 °F - 48.0 °F 93% 30.08 in 2.5 mi Calm Calm - N/A   Partly Cloudy
9:59 PM 50.0 °F - 48.2 °F 94% 30.04 in 1.0 mi Calm Calm - N/A   Mist
10:07 PM 48.2 °F - 48.2 °F 100% 30.04 in 0.5 mi Calm Calm - N/A Fog Fog
10:19 PM 48.2 °F - 46.4 °F 93% 30.04 in 2.0 mi Calm Calm - N/A   Overcast
10:25 PM 48.2 °F - 46.4 °F 93% 30.04 in 0.8 mi Calm Calm - N/A   Mist
10:34 PM 46.4 °F 45.2 °F 46.4 °F 100% 30.03 in 2.5 mi East 3.5 mph - N/A   Mostly Cloudy
10:41 PM 46.4 °F - 46.4 °F 100% 30.03 in 6.0 mi Calm Calm - N/A   Mostly Cloudy
10:50 PM 46.4 °F - 44.6 °F 93% 30.03 in 8.0 mi Calm Calm - N/A   Scattered Clouds
10:54 PM 46.9 °F - 45.0 °F 93% 30.07 in 8.0 mi Calm Calm - N/A   Partly Cloudy
11:47 PM 48.2 °F - 46.4 °F 93% 30.03 in 2.5 mi Calm Calm - N/A   Mostly Cloudy
11:51 PM 48.2 °F - 46.4 °F 93% 30.04 in 0.8 mi Calm Calm - N/A   Mist
11:54 PM 48.9 °F - 48.0 °F 97% 30.07 in 0.5 mi Calm Calm - N/A Fog Fog